Hourly Data Report for October 06, 2017

All times are specified in Local Standard Time (LST). Add 1 hour to adjust for Daylight Saving Time where and when it is observed.

SUSSEX FOUR CORNERS
NEW BRUNSWICK

45°44'30.048" N
65°31'44.039" W
47.00 m
8105210
71656
ASF

Download Data

Hourly Data (October 2017)
Hourly Data Report for October 6, 2017
Temp Definition
°C
Dew Point Temp Definition
°C
Rel Hum Definition
%
Wind Dir Definition
10's deg

Wind Spd Definition
km/h
Visibility Definition
km
Stn Press Definition
kPa
Hmdx Definition


Wind Chill Definition


Weather Definition


TIME
00:00 11.3 8.0 80 16 5   100.63     LegendNANA
01:00 10.8 7.7 81 11 2   100.64     LegendNANA
02:00 10.5 7.6 82 24 2   100.62     LegendNANA
03:00 10.9 7.8 81 22 14   100.62     LegendNANA
04:00 9.8 7.4 85 25 7   100.67     LegendNANA
05:00 10.7 7.2 79 24 5   100.73     LegendNANA
06:00 10.8 6.5 75 27 8   100.80     LegendNANA
07:00 10.3 6.3 77 23 10   100.86     LegendNANA
08:00 12.4 7.4 72 25 7   100.93     LegendNANA
09:00 13.8 7.7 67 22 10   100.98     LegendNANA
10:00 15.8 7.4 57 24 8   100.96     LegendNANA
11:00 17.5 6.5 49 24 13   100.90     LegendNANA
12:00 18.5 5.4 42 25 20   100.87     LegendNANA
13:00 19.5 5.7 40 25 18   100.81     LegendNANA
14:00 19.5 5.5 40 27 10   100.79     LegendNANA
15:00 17.7 6.6 48 27 9   100.80     LegendNANA
16:00 17.0 9.5 61 21 20   100.83     LegendNANA
17:00 13.3 10.6 83 22 16   100.91     LegendNANA
18:00 12.2 10.6 90 21 10   100.93     LegendNANA
19:00 10.9 9.3 90 23 10   100.99     LegendNANA
20:00 9.9 8.9 94 21 4   101.03     LegendNANA
21:00 8.6 7.7 94 21 5   101.10     LegendNANA
22:00 8.2 7.5 95 20 1   101.20     LegendNANA
23:00 7.6 7.2 97 2 1   101.26     LegendNANA

Notes on Data Quality.

Legend

  • E = Estimated
  • M = Missing
  • NA = Not Available
  • ‡ = Partner data that is not subject to review by the National Climate Archives
Date modified: